1487048400.32,6054,10.25,74276.5,-8.55,-33.83,-34.07,0,*64
1487048401.54,6055,10.25,74276.3,-8.55,-33.83,-34.19,0,*6A
1487048402.77,6056,10.25,74272.8,-8.51,-33.67,-34.13,0,*6D
1487048404.02,6057,10.25,74266.3,-8.51,-33.77,-34.13,0,*6D
1487048405.24,6058,10.25,74272.5,-8.55,-33.83,-34.19,0,*67
1487048406.47,6059,10.25,74278.8,-8.55,-33.73,-34.07,0,*66
1487048407.67,6060,10.25,74276.3,-8.55,-33.83,-34.07,0,*63
1487048408.9,6061,10.25,74280.8,-8.51,-33.83,-34.13,0,*63
1487048410.15,6062,10.25,74280.3,-8.55,-33.89,-34.19,0,*64
1487048411.38,6063,10.25,74282.0,-8.55,-33.67,-34.01,0,*6C
1487048412.6,6064,10.25,74278.8,-8.55,-33.89,-34.07,0,*6D
1487048413.8,6065,10.25,74282.0,-8.55,-33.83,-34.07,0,*66
1487048415.05,6066,10.25,74282.8,-8.55,-33.49,-33.73,0,*67
1487048416.28,6067,10.25,74282.5,-8.55,-33.83,-34.19,0,*6B
1487048417.5,6068,10.25,74282.0,-8.51,-33.67,-33.95,0,*69
1487048418.73,6069,10.25,74286.8,-8.51,-33.67,-33.83,0,*6F
1487048419.98,6070,10.25,74286.3,-8.51,-33.61,-33.83,0,*61
1487048421.21,6071,10.25,74284.0,-8.55,-33.55,-34.01,0,*6E
1487048422.44,6072,10.25,74284.8,-8.55,-33.67,-33.89,0,*6B
1487048423.67,6073,10.25,74284.3,-8.55,-33.83,-34.01,0,*67
1487048424.93,6074,10.25,74286.8,-8.51,-33.83,-34.01,0,*64
1487048426.15,6075,10.25,74286.5,-8.51,-33.67,-33.95,0,*65
1487048427.38,6076,10.25,74288.3,-8.51,-33.67,-34.13,0,*6F
1487048428.61,6077,10.25,74290.5,-8.51,-33.67,-34.13,0,*6E
1487048429.87,6078,10.25,74288.3,-8.55,-33.73,-33.89,0,*64
1487048431.12,6079,10.25,74286.5,-8.55,-33.73,-34.19,0,*6B
1487048432.34,6080,10.25,74288.3,-8.55,-33.89,-34.07,0,*67
1487048433.57,6081,10.25,74290.0,-8.55,-33.73,-34.07,0,*63
1487048434.83,6082,10.25,74290.5,-8.55,-33.73,-33.89,0,*61
1487048436.03,6083,10.25,74290.0,-8.55,-33.83,-34.07,0,*6E
1487048437.25,6084,10.25,74284.5,-8.55,-33.83,-34.19,0,*66
1487048438.48,6085,10.25,74286.8,-8.51,-33.83,-34.13,0,*69
1487048439.73,6086,10.25,74280.3,-8.51,-33.77,-34.13,0,*61
1487048440.96,6087,10.25,74286.5,-8.51,-33.83,-34.13,0,*6B
1487048442.19,6088,10.25,74284.3,-8.55,-33.83,-34.19,0,*6A
1487048443.43,6089,10.25,74286.3,-8.51,-33.95,-34.19,0,*68
1487048444.69,6090,10.25,74286.5,-8.51,-33.67,-34.01,0,*64
1487048445.95,6091,10.25,74280.0,-8.51,-33.77,-34.13,0,*67
1487048447.17,6092,10.25,74282.8,-8.55,-33.83,-34.19,0,*61
1487048448.37,6093,10.25,74278.3,-8.55,-33.83,-34.07,0,*6F
1487048449.6,6094,10.25,74286.0,-8.51,-33.67,-33.83,0,*6D
1487048450.85,6095,10.25,74278.8,-8.55,-33.73,-33.89,0,*67
1487048452.1,6096,10.25,74276.5,-8.55,-33.89,-34.19,0,*6F
1487048453.35,6097,10.25,74282.5,-8.51,-33.67,-34.01,0,*63
1487048454.58,6098,10.25,74284.0,-8.51,-33.67,-33.83,0,*61
1487048455.84,6099,10.25,74280.5,-8.55,-33.77,-34.01,0,*68
1487048457.07,6100,10.25,74284.0,-8.51,-33.67,-33.95,0,*66
1487048458.35,6101,10.25,74280.5,-8.51,-33.77,-34.01,0,*6C
1487048459.59,6102,10.25,74282.8,-8.55,-33.89,-34.19,0,*63
1487048460.82,6103,10.25,74284.0,-8.51,-33.83,-34.13,0,*66
1487048462.06,6104,10.25,74280.3,-8.55,-33.89,-34.19,0,*65
1487048463.32,6105,10.25,74278.0,-8.51,-33.67,-34.01,0,*69
1487048464.57,6106,10.25,74278.5,-8.51,-33.77,-34.13,0,*68
1487048465.83,6107,10.25,74266.3,-8.51,-33.77,-34.13,0,*69
1487048467.08,6108,10.25,74276.0,-8.51,-33.77,-34.13,0,*66
1487048468.36,6109,10.25,74272.8,-8.51,-33.77,-34.01,0,*64
1487048469.61,6110,10.25,74278.8,-8.55,-34.01,-34.19,0,*67
1487048470.85,6111,10.25,74270.3,-8.55,-33.89,-34.19,0,*61
1487048472.13,6112,10.25,74278.0,-8.51,-33.77,-34.01,0,*6E
1487048473.36,6113,10.25,74274.0,-8.55,-33.83,-34.19,0,*69
1487048474.62,6114,10.25,74262.5,-8.51,-33.83,-34.01,0,*63
1487048475.88,6115,10.25,74278.0,-8.55,-33.73,-34.01,0,*69
1487048477.16,6116,10.25,74280.0,-8.51,-33.77,-34.01,0,*6A
1487048478.43,6117,10.25,74278.8,-8.51,-33.61,-33.61,0,*6D
1487048479.66,6118,10.25,74274.5,-8.55,-33.67,-33.73,0,*63
1487048480.94,6119,10.25,74272.8,-8.51,-33.49,-33.77,0,*6E
1487048482.19,6120,10.25,74264.8,-8.51,-33.77,-34.13,0,*6C
1487048483.44,6121,10.25,74272.8,-8.51,-33.61,-33.83,0,*64
1487048484.67,6122,10.25,74270.0,-8.49,-33.61,-34.07,0,*65
1487048485.89,6123,10.25,74268.3,-8.49,-33.61,-33.95,0,*68
1487048487.11,6124,10.25,74262.0,-8.49,-33.61,-33.95,0,*6F
1487048488.33,6125,10.25,74274.8,-8.49,-33.61,-34.07,0,*62
1487048489.55,6126,10.25,74278.0,-8.49,-33.61,-33.95,0,*6D
1487048490.78,6127,10.25,74272.5,-8.49,-33.89,-34.07,0,*66
1487048492.01,6128,10.25,74276.8,-8.49,-33.73,-33.95,0,*60
1487048493.26,6129,10.25,74274.5,-8.49,-33.61,-33.77,0,*6E
1487048494.54,6130,10.25,74274.5,-8.47,-33.73,-33.89,0,*6A
1487048495.76,6131,10.25,74266.3,-8.49,-33.61,-33.95,0,*6B
1487048496.98,6132,10.25,74280.5,-8.49,-33.61,-33.95,0,*68
1487048498.21,6133,10.25,74280.0,-8.49,-33.61,-33.95,0,*69
1487048499.43,6134,10.25,74278.8,-8.49,-33.15,-33.31,0,*63
1487048500.66,6135,10.25,74278.5,-8.49,-33.37,-33.61,0,*67
1487048501.88,6136,10.25,74274.5,-8.47,-33.55,-33.95,0,*65
1487048503.12,6137,10.25,74264.0,-8.47,-33.37,-33.55,0,*6C
1487048504.37,6138,10.25,74260.0,-8.47,-33.55,-33.73,0,*63
1487048505.6,6139,10.25,74282.0,-8.47,-33.37,-33.55,0,*62
1487048506.86,6140,10.25,74278.8,-8.47,-33.37,-33.61,0,*6B
1487048508.07,6141,10.25,74280.3,-8.45,-33.37,-33.67,0,*6E
1487048509.28,6142,10.25,74280.5,-8.45,-33.15,-33.37,0,*68
1487048510.49,6143,10.25,74288.8,-8.45,-33.37,-33.55,0,*6D
1487048511.75,6144,10.25,74284.3,-8.43,-33.49,-33.67,0,*64
1487048513.03,6145,10.25,74288.8,-8.43,-33.49,-33.73,0,*60
1487048514.3,6146,10.25,74296.0,-8.43,-33.31,-33.73,0,*6C
1487048515.57,6147,10.25,74290.5,-8.45,-33.49,-33.73,0,*64
1487048516.8,6148,10.25,74296.8,-8.45,-33.55,-34.01,0,*64
1487048518.05,6149,10.25,74296.0,-8.43,-33.55,-33.73,0,*61
1487048519.31,6150,10.25,74294.8,-8.43,-33.67,-34.01,0,*6A
1487048520.56,6151,10.25,74290.3,-8.43,-33.67,-34.01,0,*6B
1487048521.8,6152,10.25,74286.0,-8.45,-33.83,-34.01,0,*64
1487048523.06,6153,10.25,74284.5,-8.45,-34.01,-34.19,0,*61
1487048524.3,6154,10.25,74282.8,-8.45,-33.83,-34.01,0,*62
1487048525.54,6155,10.25,74288.3,-8.45,-33.83,-34.01,0,*63
1487048526.78,6156,10.25,74290.0,-8.43,-34.01,-34.25,0,*6D
1487048528.01,6157,10.25,74288.3,-8.43,-33.83,-34.07,0,*61
1487048529.23,6158,10.25,74294.8,-8.43,-33.55,-34.07,0,*65
1487048530.51,6159,10.25,74294.5,-8.43,-33.73,-34.01,0,*66
1487048531.75,6160,10.25,74292.5,-8.45,-33.67,-34.01,0,*6F
1487048532.99,6161,10.25,74294.8,-8.45,-33.83,-34.01,0,*64
1487048534.23,6162,10.25,74294.8,-8.45,-33.83,-34.01,0,*67
1487048535.48,6163,10.25,74296.8,-8.43,-34.01,-34.07,0,*6B
1487048536.69,6164,10.25,74298.5,-8.45,-33.83,-34.07,0,*67
1487048537.92,6165,10.25,74296.3,-8.45,-33.83,-34.19,0,*69
1487048539.17,6166,10.25,74298.3,-8.45,-33.89,-34.19,0,*60
1487048540.44,6167,10.25,74296.8,-8.43,-33.89,-34.35,0,*69
1487048541.7,6168,10.25,74290.5,-8.45,-33.73,-34.19,0,*6B
1487048542.95,6169,10.25,74288.5,-8.43,-33.55,-34.01,0,*61
1487048544.16,6170,10.25,74286.3,-8.45,-33.83,-34.07,0,*62
1487048545.43,6171,10.25,74292.0,-8.43,-33.89,-34.19,0,*60
1487048546.66,6172,10.25,74298.0,-8.45,-34.01,-34.41,0,*6F
1487048547.91,6173,10.25,74294.8,-8.43,-33.73,-34.25,0,*68
1487048549.13,6174,10.25,74298.0,-8.43,-33.83,-34.25,0,*60
1487048550.38,6175,10.25,74296.0,-8.43,-33.73,-34.25,0,*6E
1487048551.62,6176,10.25,74294.0,-8.43,-33.83,-34.19,0,*6D
1487048552.86,6177,10.25,74288.0,-8.43,-33.89,-34.25,0,*69
1487048554.11,6178,10.25,74286.0,-8.43,-34.01,-34.41,0,*63
1487048555.32,6179,10.25,74290.5,-8.45,-34.07,-34.41,0,*62
1487048556.55,6180,10.25,74290.0,-8.43,-34.07,-34.47,0,*64
1487048557.76,6181,10.25,74292.0,-8.45,-34.07,-34.41,0,*65
1487048559.03,6182,10.25,74292.3,-8.43,-34.01,-34.35,0,*65
1487048560.29,6183,10.25,74280.8,-8.43,-34.19,-34.47,0,*68
1487048561.54,6184,10.25,74290.3,-8.45,-34.19,-34.35,0,*6C
1487048562.75,6185,10.25,74288.5,-8.45,-34.07,-34.41,0,*61
1487048563.98,6186,10.25,74290.8,-8.45,-34.19,-34.41,0,*6D
1487048565.21,6187,10.25,74288.3,-8.45,-34.19,-34.59,0,*65
1487048566.44,6188,10.25,74288.0,-8.45,-34.01,-34.25,0,*68
1487048567.7,6189,10.25,74292.3,-8.45,-34.01,-34.35,0,*68
1487048568.9,6190,10.25,74290.8,-8.45,-34.07,-34.25,0,*67
1487048570.14,6191,10.25,74288.5,-8.43,-33.89,-34.25,0,*61
1487048571.39,6192,10.25,74292.3,-8.45,-33.89,-34.19,0,*6B
1487048572.62,6193,10.25,74292.3,-8.45,-33.89,-34.07,0,*65
1487048573.9,6194,10.25,74292.5,-8.43,-34.01,-34.19,0,*6C
1487048575.14,6195,10.31,74292.8,-8.43,-33.89,-34.25,0,*65
1487048576.39,6196,10.25,74294.3,-8.43,-34.07,-34.35,0,*66
1487048577.64,6197,10.25,74290.3,-8.45,-34.01,-34.35,0,*67
1487048578.9,6198,10.25,74292.5,-8.45,-34.01,-34.35,0,*68
1487048580.13,6199,10.25,74294.3,-8.45,-34.19,-34.41,0,*63
1487048581.35,6200,10.25,74294.8,-8.45,-34.07,-34.47,0,*69
1487048582.57,6201,10.25,74298.0,-8.45,-34.19,-34.41,0,*61
1487048583.8,6202,10.25,74298.3,-8.45,-33.89,-34.25,0,*6E
1487048585.06,6203,10.25,74304.8,-8.43,-33.89,-34.19,0,*66
1487048586.32,6204,10.25,74306.8,-8.45,-33.73,-34.19,0,*62
1487048587.55,6205,10.25,74302.8,-8.45,-33.89,-34.25,0,*69
1487048588.8,6206,10.25,74296.3,-8.45,-34.01,-34.35,0,*6C
1487048590.06,6207,10.25,74282.3,-8.45,-34.01,-34.35,0,*6D
1487048591.28,6208,10.25,74286.0,-8.45,-33.89,-34.25,0,*64
1487048592.53,6209,10.25,74292.5,-8.45,-33.89,-34.19,0,*6A
1487048593.74,6210,10.25,74292.3,-8.45,-33.83,-34.07,0,*67
1487048594.99,6211,10.25,74298.0,-8.45,-33.89,-34.19,0,*63
1487048596.24,6212,10.25,74302.5,-8.45,-33.89,-34.19,0,*60
1487048597.47,6213,10.31,74304.5,-8.43,-33.83,-34.07,0,*62
1487048598.7,6214,10.31,74298.3,-8.45,-33.83,-34.19,0,*6C
1487048599.91,6215,10.25,74298.5,-8.45,-33.83,-34.07,0,*62
1487048601.15,6216,10.25,74298.0,-8.43,-33.89,-34.07,0,*6D
1487048602.41,6217,10.25,74292.8,-8.45,-34.01,-34.19,0,*62
1487048603.67,6218,10.25,74292.8,-8.45,-34.19,-34.35,0,*6A
1487048604.9,6219,10.25,74288.5,-8.45,-33.83,-34.01,0,*68
1487048606.11,6220,10.25,74286.8,-8.45,-33.83,-34.07,0,*64
1487048607.34,6221,10.25,74294.3,-8.45,-34.01,-34.25,0,*68
1487048608.58,6222,10.25,74286.8,-8.45,-33.73,-34.07,0,*69
1487048609.83,6223,10.25,74288.8,-8.45,-33.89,-34.19,0,*62
1487048611.08,6224,10.25,74286.8,-8.45,-33.89,-34.19,0,*65
1487048612.31,6225,10.25,74278.3,-8.43,-33.83,-34.07,0,*67
1487048613.56,6226,10.25,74286.0,-8.43,-34.01,-34.25,0,*69
1487048614.78,6227,10.25,74290.3,-8.45,-34.19,-34.41,0,*65
1487048616.05,6228,10.25,74290.3,-8.43,-33.89,-34.19,0,*6F
1487048617.3,6229,10.25,74296.0,-8.45,-33.89,-34.19,0,*68
1487048618.53,6230,10.25,74294.0,-8.45,-34.01,-34.25,0,*68
1487048619.79,6231,10.25,74294.3,-8.45,-34.01,-34.35,0,*68
1487048621.02,6232,10.25,74292.3,-8.45,-34.01,-34.25,0,*6A
1487048622.27,6233,10.25,74292.0,-8.43,-33.73,-34.07,0,*6F
1487048623.51,6234,10.25,74284.8,-8.45,-33.73,-34.07,0,*6E
1487048624.78,6235,10.31,74284.5,-8.45,-33.73,-34.01,0,*69
1487048625.99,6236,10.25,74286.8,-8.45,-33.83,-34.07,0,*63
1487048627.23,6237,10.25,74280.0,-8.43,-33.83,-34.19,0,*6B
1487048628.44,6238,10.25,74282.3,-8.45,-33.83,-34.07,0,*6D
1487048629.67,6239,10.25,74278.8,-8.43,-33.83,-34.07,0,*6A
1487048630.92,6240,10.25,74290.0,-8.43,-33.89,-34.07,0,*6E
1487048632.16,6241,10.25,74294.8,-8.43,-33.89,-34.07,0,*6F
1487048633.38,6242,10.31,74294.5,-8.43,-34.07,-34.25,0,*6D
1487048634.65,6243,10.25,74290.8,-8.43,-33.89,-34.19,0,*62
1487048635.88,6244,10.25,74290.5,-8.43,-33.83,-34.07,0,*60
1487048637.12,6245,10.25,74288.3,-8.43,-33.89,-34.07,0,*6B
1487048638.37,6246,10.25,74288.0,-8.43,-34.01,-34.25,0,*6F
1487048639.6,6247,10.25,74292.0,-8.43,-33.83,-34.07,0,*63
1487048640.86,6248,10.25,74288.3,-8.43,-33.89,-34.19,0,*69
1487048642.13,6249,10.25,74300.8,-8.43,-34.01,-34.19,0,*6F
1487048643.38,6250,10.25,74302.0,-8.43,-34.01,-34.25,0,*68
1487048644.66,6251,10.25,74296.5,-8.43,-33.49,-33.73,0,*66
1487048645.9,6252,10.25,74286.3,-8.45,-33.67,-34.01,0,*6D
1487048647.17,6253,10.31,74286.5,-8.43,-34.01,-34.19,0,*64
1487048648.43,6254,10.25,74292.0,-8.43,-34.01,-34.07,0,*6C
1487048649.68,6255,10.25,74282.8,-8.43,-33.67,-33.89,0,*6B
1487048650.93,6256,10.25,74272.5,-8.43,-33.67,-33.89,0,*68
1487048652.21,6257,10.25,74274.8,-8.43,-33.73,-34.01,0,*6B
1487048653.44,6258,10.25,74276.3,-8.43,-33.83,-34.07,0,*6D
1487048654.67,6259,10.25,74278.8,-8.41,-33.67,-34.01,0,*62
1487048655.87,6260,10.25,74282.8,-8.41,-33.83,-33.83,0,*6F
1487048657.1,6261,10.25,74286.5,-8.41,-33.43,-33.67,0,*68
1487048658.33,6262,10.25,74284.5,-8.41,-33.49,-33.83,0,*6B
1487048659.61,6263,10.25,74280.5,-8.39,-33.49,-33.77,0,*6E
1487048660.83,6264,10.25,74286.8,-8.41,-33.61,-33.95,0,*60
1487048662.06,6265,10.25,74282.5,-8.41,-33.49,-33.83,0,*6C
1487048663.28,6266,10.25,74270.3,-8.41,-33.77,-33.95,0,*65
1487048664.54,6267,10.25,74266.3,-8.41,-33.77,-34.01,0,*6E
1487048665.76,6268,10.25,74268.5,-8.39,-33.67,-33.95,0,*65
1487048667.01,6269,10.25,74286.5,-8.39,-33.77,-33.95,0,*65
1487048668.24,6270,10.25,74294.8,-8.39,-33.83,-34.13,0,*6F
1487048669.51,6271,10.25,74290.8,-8.39,-33.49,-33.61,0,*6A
1487048670.76,6272,10.25,74284.3,-8.39,-33.43,-33.83,0,*6F
1487048672.01,6273,10.25,74298.0,-8.41,-33.43,-33.61,0,*6D
1487048673.28,6274,10.25,74298.3,-8.39,-33.43,-33.61,0,*65
1487048674.51,6275,10.25,74292.3,-8.37,-33.37,-33.73,0,*6A
1487048675.77,6276,10.25,74280.3,-8.37,-33.43,-33.73,0,*6A
1487048677.02,6277,10.25,74278.0,-8.37,-33.43,-33.73,0,*6B
1487048678.26,6278,10.25,74280.0,-8.39,-33.61,-33.95,0,*62
1487048679.49,6279,10.25,74284.0,-8.37,-33.55,-33.77,0,*66
1487048680.71,6280,10.25,74284.3,-8.37,-33.61,-33.95,0,*6B
1487048681.98,6281,10.25,74278.8,-8.35,-33.61,-33.89,0,*65
1487048683.22,6282,10.25,74276.0,-8.37,-33.73,-34.07,0,*66
1487048684.44,6283,10.25,74272.5,-8.37,-33.77,-34.07,0,*63
1487048685.67,6284,10.31,74284.3,-8.37,-33.73,-33.95,0,*6C
1487048686.95,6285,10.31,74286.5,-8.35,-33.61,-33.77,0,*60
1487048688.21,6286,10.25,74286.0,-8.37,-33.73,-33.89,0,*63
1487048689.44,6287,10.25,74282.5,-8.37,-33.73,-33.95,0,*6F
1487048690.66,6288,10.25,74290.3,-8.37,-33.89,-34.07,0,*69
1487048691.88,6289,10.25,74290.0,-8.37,-33.61,-33.95,0,*62
1487048693.13,6290,10.25,74288.8,-8.37,-33.43,-33.73,0,*62
1487048694.41,6291,10.25,74298.0,-8.35,-33.43,-33.73,0,*61
1487048695.66,6292,10.25,74300.3,-8.37,-33.43,-33.89,0,*65
1487048696.94,6293,10.25,74300.3,-8.35,-33.61,-33.89,0,*66
1487048698.2,6294,10.31,74304.0,-8.37,-33.73,-33.89,0,*60
1487048699.45,6295,10.25,74302.8,-8.35,-33.37,-33.61,0,*65
1487048700.7,6296,10.31,74294.0,-8.35,-33.37,-33.61,0,*66
1487048701.98,6297,10.25,74288.5,-8.35,-33.73,-33.89,0,*61
1487048703.23,6298,10.25,74290.3,-8.37,-33.61,-33.89,0,*6F
1487048704.49,6299,10.25,74290.0,-8.35,-33.55,-33.77,0,*6A
1487048705.73,6300,10.25,74290.3,-8.35,-33.61,-33.95,0,*60
1487048706.98,6301,10.25,74284.0,-8.35,-33.77,-34.07,0,*6A
1487048708.23,6302,10.25,74286.0,-8.35,-33.89,-34.13,0,*6D
1487048709.46,6303,10.25,74284.8,-8.35,-34.07,-34.25,0,*68
1487048710.69,6304,10.25,74286.8,-8.33,-34.07,-34.31,0,*6C
1487048711.91,6305,10.25,74292.3,-8.35,-34.07,-34.25,0,*6E
1487048713.14,6306,10.25,74296.5,-8.37,-33.77,-34.07,0,*6F
1487048714.34,6307,10.25,74288.8,-8.37,-33.95,-34.13,0,*67
1487048715.59,6308,10.25,74290.0,-8.35,-33.77,-33.95,0,*6F
1487048716.84,6309,10.25,74294.0,-8.35,-33.77,-34.07,0,*62
1487048718.1,6310,10.31,74300.8,-8.35,-33.73,-33.95,0,*62
1487048719.32,6311,10.25,74298.3,-8.37,-33.61,-33.95,0,*62
1487048720.58,6312,10.25,74294.3,-8.35,-33.73,-33.95,0,*60
1487048721.83,6313,10.25,74288.0,-8.35,-33.77,-34.07,0,*69
1487048723.08,6314,10.25,74286.5,-8.35,-33.89,-34.13,0,*6A
1487048724.29,6315,10.25,74286.3,-8.37,-33.89,-34.25,0,*6C
1487048725.54,6316,10.25,74284.8,-8.35,-33.89,-34.25,0,*6D
1487048726.76,6317,10.31,74284.5,-8.35,-33.95,-34.07,0,*61
1487048727.96,6318,10.25,74286.5,-8.37,-33.95,-34.25,0,*6C
1487048729.21,6319,10.25,74288.3,-8.35,-33.77,-34.07,0,*63
1487048730.46,6320,10.25,74276.5,-8.35,-33.61,-33.95,0,*62
1487048731.7,6321,10.25,74282.5,-8.35,-33.61,-33.95,0,*63
1487048732.96,6322,10.31,74284.3,-8.35,-33.73,-33.95,0,*63
1487048734.21,6323,10.25,74290.8,-8.35,-33.73,-33.95,0,*62
1487048735.47,6324,10.25,74288.3,-8.35,-33.55,-33.89,0,*6C
1487048736.72,6325,10.25,74292.3,-8.35,-33.55,-33.89,0,*6D
1487048737.96,6326,10.25,74296.8,-8.35,-33.61,-33.95,0,*64
1487048739.21,6327,10.25,74292.0,-8.37,-33.61,-33.89,0,*6A
1487048740.46,6328,10.25,74294.0,-8.35,-33.55,-33.77,0,*61
1487048741.71,6329,10.25,74300.5,-8.35,-33.61,-33.95,0,*6B
1487048742.99,6330,10.31,74304.3,-8.35,-33.43,-33.77,0,*6F
1487048744.22,6331,10.25,74300.0,-8.35,-33.21,-33.37,0,*6E
1487048745.47,6332,10.25,74296.5,-8.37,-33.43,-33.73,0,*6B
1487048746.68,6333,10.25,74294.8,-8.29,-33.37,-33.67,0,*63
1487048747.89,6334,10.25,74284.8,-8.29,-33.37,-33.67,0,*64
1487048749.15,6335,10.25,74278.5,-8.33,-33.49,-33.73,0,*62
1487048750.38,6336,10.25,74272.5,-8.29,-33.67,-33.89,0,*63
1487048751.61,6337,10.25,74278.5,-8.33,-33.67,-33.89,0,*69
1487048752.82,6338,10.25,74280.3,-8.29,-33.83,-34.07,0,*66
1487048754.04,6339,10.25,74276.5,-8.33,-34.01,-34.25,0,*61
1487048755.3,6340,10.25,74276.3,-8.29,-34.01,-34.31,0,*61
1487048756.5,6341,10.25,74286.3,-8.33,-33.83,-34.07,0,*63
1487048757.73,6342,10.25,74288.5,-8.33,-33.67,-33.89,0,*6B
1487048758.99,6343,10.25,74290.8,-8.33,-33.73,-34.01,0,*68
1487048760.22,6344,10.25,74286.5,-8.33,-33.67,-34.01,0,*6A
1487048761.48,6345,10.25,74280.0,-8.33,-33.73,-34.01,0,*6E
1487048762.69,6346,10.25,74278.3,-8.33,-33.83,-34.07,0,*64
1487048763.92,6347,10.25,74272.5,-8.29,-33.73,-34.07,0,*61
1487048765.12,6348,10.25,74276.5,-8.33,-33.83,-34.07,0,*6A
1487048766.35,6349,10.25,74272.0,-8.29,-33.83,-34.19,0,*6F
1487048767.59,6350,10.25,74278.8,-8.29,-33.83,-34.01,0,*6E
1487048768.79,6351,10.25,74284.5,-8.33,-33.83,-34.07,0,*62
1487048769.99,6352,10.25,74294.3,-8.29,-33.55,-33.83,0,*6A
1487048771.19,6353,10.25,74290.3,-8.33,-33.67,-33.83,0,*61
1487048772.39,6354,10.25,74292.5,-8.33,-33.55,-33.83,0,*67
1487048773.62,6355,10.25,74300.0,-8.33,-33.49,-33.83,0,*6B
1487048774.88,6356,10.25,74298.3,-8.29,-33.49,-33.73,0,*6C
1487048776.09,6357,10.25,74292.5,-8.29,-33.37,-33.83,0,*6B
1487048777.29,6358,10.25,74288.3,-8.29,-33.55,-33.83,0,*60
1487048778.52,6359,10.25,74288.3,-8.29,-33.49,-33.83,0,*6C
1487048779.76,6360,10.25,74290.8,-8.27,-33.61,-33.95,0,*65
1487048781.04,6361,10.25,74284.0,-8.27,-33.77,-34.01,0,*69
1487048782.26,6362,10.25,74286.0,-8.27,-33.95,-34.25,0,*60
1487048783.5,6363,10.25,74290.3,-8.27,-33.95,-34.19,0,*6E
1487048784.76,6364,10.25,74290.5,-8.27,-33.83,-34.01,0,*67
1487048786.0,6365,10.25,74292.8,-8.27,-33.83,-34.19,0,*6F
1487048787.27,6366,10.25,74296.3,-8.27,-34.01,-34.19,0,*61
1487048788.47,6367,10.25,74296.5,-8.25,-33.95,-34.13,0,*62
1487048789.72,6368,10.25,74296.5,-8.27,-33.61,-33.83,0,*6A
1487048791.0,6369,10.25,74296.8,-8.27,-33.49,-33.77,0,*6A
1487048792.28,6370,10.25,74292.8,-8.27,-33.49,-33.77,0,*62
1487048793.55,6371,10.31,74296.3,-8.27,-33.77,-34.01,0,*68
1487048794.78,6372,10.25,74290.8,-8.27,-33.83,-34.13,0,*63
1487048795.98,6373,10.25,74288.5,-8.25,-33.83,-34.13,0,*60
1487048797.23,6374,10.25,74290.8,-8.27,-33.95,-34.19,0,*68
1487048798.48,6375,10.25,74292.5,-8.27,-33.83,-34.01,0,*67
1487048799.7,6376,10.25,74292.8,-8.27,-33.95,-34.13,0,*60
1487048800.95,6377,10.25,74296.5,-8.27,-34.01,-34.25,0,*6E
1487048802.2,6378,10.25,74296.0,-8.27,-33.77,-33.95,0,*6B
1487048803.42,6379,10.25,74294.0,-8.27,-33.83,-34.13,0,*68
1487048804.67,6380,10.25,74298.8,-8.27,-33.95,-34.19,0,*63
1487048805.89,6381,10.25,74296.0,-8.29,-34.01,-34.25,0,*69
1487048807.15,6382,10.25,74292.5,-8.29,-34.01,-34.19,0,*65
1487048808.35,6383,10.25,74294.0,-8.29,-34.07,-34.25,0,*6D
1487048809.6,6384,10.25,74294.8,-8.29,-33.89,-34.19,0,*64
1487048810.82,6385,10.25,74294.3,-8.27,-33.95,-34.13,0,*6C
1487048812.09,6386,10.25,74292.5,-8.27,-34.01,-34.19,0,*6F
1487048813.34,6387,10.25,74296.8,-8.27,-33.83,-34.19,0,*63
1487048814.56,6388,10.25,74298.3,-8.27,-33.67,-33.95,0,*65
1487048815.81,6389,10.25,74290.5,-8.27,-33.83,-34.19,0,*6D
1487048817.08,6390,10.31,74294.8,-8.27,-34.01,-34.19,0,*68
1487048818.33,6391,10.25,74292.5,-8.27,-34.13,-34.19,0,*6A
1487048819.57,6392,10.31,74292.5,-8.27,-34.01,-34.25,0,*65
1487048820.82,6393,10.25,74290.8,-8.27,-34.01,-34.25,0,*64
1487048822.07,6394,10.25,74292.3,-8.27,-34.01,-34.25,0,*63
1487048823.29,6395,10.25,74294.5,-8.25,-34.01,-34.25,0,*60
1487048824.56,6396,10.25,74296.5,-8.27,-34.01,-34.35,0,*60
1487048825.79,6397,10.25,74294.3,-8.27,-33.67,-34.13,0,*62
1487048827.01,6398,10.25,74302.8,-8.27,-33.95,-34.13,0,*60
1487048828.23,6399,10.25,74298.8,-8.27,-33.95,-34.13,0,*61
1487048829.46,6400,10.25,74294.5,-8.29,-34.01,-34.25,0,*67
1487048830.72,6401,10.25,74288.8,-8.29,-34.01,-34.31,0,*63
1487048831.94,6402,10.25,74294.0,-8.29,-34.01,-34.25,0,*65
1487048833.19,6403,10.25,74290.5,-8.29,-34.01,-34.19,0,*6B
1487048834.45,6404,10.25,74286.8,-8.29,-34.01,-34.19,0,*6C
1487048835.67,6405,10.25,74282.0,-8.27,-34.13,-34.25,0,*6F
1487048836.91,6406,10.25,74288.3,-8.27,-34.01,-34.25,0,*6F
1487048838.17,6407,10.25,74294.5,-8.29,-34.19,-34.31,0,*6C
1487048839.37,6408,10.25,74296.3,-8.29,-33.83,-34.07,0,*62
1487048840.62,6409,10.25,74296.0,-8.29,-34.19,-34.31,0,*62
1487048841.85,6410,10.25,74288.8,-8.33,-34.19,-34.41,0,*66
1487048843.1,6411,10.25,74284.8,-8.29,-34.01,-34.19,0,*68
1487048844.35,6412,10.25,74294.3,-8.29,-34.01,-34.19,0,*6B
1487048845.61,6413,10.25,74286.0,-8.29,-34.01,-34.19,0,*6A
1487048846.85,6414,10.31,74286.8,-8.33,-34.19,-34.31,0,*65
1487048848.11,6415,10.25,74282.8,-8.29,-34.01,-34.19,0,*6C
1487048849.36,6416,10.25,74290.5,-8.29,-34.01,-34.19,0,*6F
1487048850.59,6417,10.25,74296.3,-8.29,-34.01,-34.25,0,*61
1487048851.82,6418,10.25,74294.8,-8.29,-34.07,-34.31,0,*6D
1487048853.03,6419,10.25,74294.8,-8.29,-34.25,-34.47,0,*6D
1487048854.22,6420,10.25,74298.8,-8.29,-34.25,-34.41,0,*61
1487048855.48,6421,10.25,74298.5,-8.29,-34.19,-34.31,0,*68
1487048856.73,6422,10.25,74298.5,-8.29,-34.01,-34.19,0,*68
1487048857.93,6423,10.25,74296.3,-8.33,-34.07,-34.25,0,*6B
1487048859.16,6424,10.25,74296.3,-8.29,-34.01,-34.07,0,*61
1487048860.42,6425,10.25,74296.0,-8.29,-33.73,-33.89,0,*63
1487048861.66,6426,10.25,74300.0,-8.29,-33.83,-34.01,0,*68
1487048862.92,6427,10.25,74296.8,-8.29,-33.73,-33.89,0,*61
1487048864.15,6428,10.25,74290.3,-8.33,-33.83,-34.01,0,*6D
1487048865.4,6429,10.25,74288.8,-8.29,-33.89,-34.19,0,*64
1487048866.62,6430,10.25,74292.8,-8.29,-33.89,-34.25,0,*63
1487048867.84,6431,10.25,74296.0,-8.33,-34.01,-34.25,0,*6E
1487048869.06,6432,10.25,74290.8,-8.33,-34.01,-34.25,0,*6D
1487048870.31,6433,10.25,74294.0,-8.29,-33.89,-34.19,0,*6F
1487048871.54,6434,10.25,74290.8,-8.29,-34.01,-34.25,0,*60
1487048872.77,6435,10.25,74292.8,-8.33,-34.01,-34.07,0,*6A
1487048874.02,6436,10.25,74302.0,-8.33,-34.01,-34.19,0,*66
1487048875.24,6437,10.25,74298.3,-8.33,-34.01,-34.25,0,*68
1487048876.44,6438,10.25,74294.0,-8.33,-34.07,-34.25,0,*61
1487048877.69,6439,10.25,74294.3,-8.33,-34.01,-34.19,0,*69
1487048878.91,6440,10.25,74296.5,-8.33,-33.89,-34.07,0,*6F
1487048880.15,6441,10.25,74294.3,-8.33,-33.83,-34.01,0,*62
1487048881.38,6442,10.31,74296.0,-8.33,-33.83,-34.01,0,*61
1487048882.64,6443,10.25,74292.8,-8.29,-33.73,-34.01,0,*64
1487048883.89,6444,10.25,74294.5,-8.29,-33.89,-34.19,0,*6F
1487048885.14,6445,10.25,74300.0,-8.29,-34.01,-34.19,0,*69
1487048886.36,6446,10.25,74296.0,-8.33,-33.89,-34.25,0,*69
1487048887.6,6447,10.25,74300.3,-8.29,-33.83,-34.01,0,*6F
1487048888.82,6448,10.25,74298.0,-8.33,-33.55,-33.89,0,*67
1487048890.06,6449,10.25,74296.0,-8.29,-33.67,-34.01,0,*6B
1487048891.29,6450,10.25,74294.0,-8.33,-34.01,-34.07,0,*69
1487048892.52,6451,10.25,74298.0,-8.29,-33.73,-34.07,0,*61
1487048893.76,6452,10.25,74292.8,-8.29,-33.83,-34.01,0,*6B
1487048895.0,6453,10.25,74296.0,-8.33,-33.89,-34.19,0,*62
1487048896.25,6454,10.31,74302.5,-8.29,-34.01,-34.19,0,*69
1487048897.45,6455,10.25,74296.0,-8.33,-34.07,-34.41,0,*68
1487048898.65,6456,10.25,74294.8,-8.29,-33.83,-34.25,0,*69
1487048899.9,6457,10.25,74294.3,-8.33,-34.01,-34.19,0,*61
1487048901.15,6458,10.25,74298.5,-8.33,-33.89,-34.19,0,*69
1487048902.35,6459,10.25,74298.0,-8.29,-33.83,-34.07,0,*66
1487048903.55,6460,10.25,74298.5,-8.33,-33.55,-33.83,0,*67